When you browse on this site, cookies collect data to enhance your experience and personalize the content and advertising you see.
Visit our Privacy Policy to learn more. By continuing to use the site, you agree to this use of cookies and data.
  • In Deutschland
  • Länderverzeichnis
  • Für 7 Tage
  • Wassertemperatur
  • Satellitenkarten
  • Wetterkarte
  • Widgets
  • user-avatar
    Anmelden

    Stündliche Wetter Lezhe

    Heute, 21 Juli, Sonntag

    Zeit Temperatur Niederschläge Wind Luftdruck Luftfeuchtigkeit
    00:00 +22°C° 0 mm 1 m/S 740 mmHg 65%
    01:00 +22°C° 0 mm 1 m/S 740 mmHg 64%
    02:00 +22°C° 0 mm 1 m/S 740 mmHg 64%
    03:00 +22°C° 0 mm 1 m/S 740 mmHg 64%
    04:00 +21°C° 0 mm 1 m/S 740 mmHg 64%
    05:00 +23°C° 0 mm 1 m/S 740 mmHg 59%
    06:00 +25°C° 0 mm 1 m/S 740 mmHg 55%
    07:00 +27°C° 0 mm 1 m/S 740 mmHg 51%
    08:00 +29°C° 0 mm 1 m/S 740 mmHg 46%
    09:00 +31°C° 0 mm 1 m/S 741 mmHg 41%
    10:00 +33°C° 0 mm 1 m/S 741 mmHg 36%
    11:00 +34°C° 0 mm 2 m/S 741 mmHg 35%
    12:00 +34°C° 0 mm 3 m/S 740 mmHg 35%
    13:00 +34°C° 0 mm 3 m/S 740 mmHg 35%
    14:00 +34°C° 0 mm 3 m/S 740 mmHg 36%
    15:00 +34°C° 0 mm 3 m/S 740 mmHg 38%
    16:00 +32°C° 0 mm 2 m/S 740 mmHg 39%
    17:00 +30°C° 0 mm 2 m/S 740 mmHg 46%
    18:00 +28°C° 0 mm 1 m/S 740 mmHg 53%
    19:00 +26°C° 0 mm 1 m/S 739 mmHg 60%
    20:00 +25°C° 0 mm 1 m/S 740 mmHg 61%
    21:00 +24°C° 0 mm 1 m/S 740 mmHg 62%
    22:00 +24°C° 0 mm 1 m/S 740 mmHg 63%
    23:00 +24°C° 0 mm 1 m/S 740 mmHg 62%

    Morgen, 22 Juli, Montag

    Zeit Temperatur Niederschläge Wind Luftdruck Luftfeuchtigkeit
    00:00 +24°C° 0 mm 1 m/S 740 mmHg 62%
    01:00 +24°C° 0 mm 1 m/S 740 mmHg 61%
    02:00 +23°C° 0 mm 1 m/S 740 mmHg 61%
    03:00 +23°C° 0 mm 1 m/S 740 mmHg 61%
    04:00 +23°C° 0 mm 2 m/S 740 mmHg 61%
    05:00 +25°C° 0 mm 1 m/S 740 mmHg 58%
    06:00 +26°C° 0 mm 1 m/S 740 mmHg 54%
    07:00 +28°C° 0 mm 1 m/S 741 mmHg 51%
    08:00 +30°C° 0 mm 2 m/S 741 mmHg 45%
    09:00 +32°C° 0 mm 2 m/S 741 mmHg 39%
    10:00 +35°C° 0 mm 3 m/S 741 mmHg 33%
    11:00 +36°C° 0 mm 3 m/S 740 mmHg 32%
    12:00 +36°C° 0 mm 3 m/S 740 mmHg 30%
    13:00 +37°C° 0 mm 3 m/S 740 mmHg 28%
    14:00 +36°C° 0 mm 3 m/S 740 mmHg 30%
    15:00 +36°C° 0 mm 3 m/S 740 mmHg 32%
    16:00 +35°C° 0 mm 3 m/S 740 mmHg 34%
    17:00 +33°C° 0 mm 3 m/S 739 mmHg 40%
    18:00 +30°C° 0 mm 3 m/S 739 mmHg 46%
    19:00 +28°C° 0 mm 3 m/S 739 mmHg 53%
    20:00 +27°C° 0 mm 3 m/S 740 mmHg 55%
    21:00 +27°C° 0 mm 3 m/S 740 mmHg 58%
    22:00 +26°C° 0 mm 3 m/S 740 mmHg 61%
    23:00 +25°C° 0 mm 3 m/S 740 mmHg 63%

    übermorgen, 23 Juli, Dienstag

    Zeit Temperatur Niederschläge Wind Luftdruck Luftfeuchtigkeit
    00:00 +24°C° 0 mm 3 m/S 739 mmHg 66%
    01:00 +23°C° 0 mm 4 m/S 739 mmHg 69%
    02:00 +22°C° 0 mm 4 m/S 739 mmHg 70%
    03:00 +22°C° 0 mm 4 m/S 739 mmHg 71%
    04:00 +21°C° 0 mm 4 m/S 739 mmHg 73%
    05:00 +22°C° 0 mm 4 m/S 739 mmHg 67%
    06:00 +25°C° 0 mm 4 m/S 739 mmHg 61%
    07:00 +26°C° 0 mm 4 m/S 739 mmHg 55%
    08:00 +28°C° 0 mm 4 m/S 739 mmHg 48%
    09:00 +30°C° 0 mm 5 m/S 739 mmHg 41%
    10:00 +32°C° 0 mm 5 m/S 739 mmHg 34%
    11:00 +33°C° 0 mm 5 m/S 738 mmHg 33%
    12:00 +34°C° 0 mm 5 m/S 738 mmHg 31%
    13:00 +35°C° 0 mm 4 m/S 738 mmHg 29%
    14:00 +35°C° 0 mm 5 m/S 738 mmHg 30%
    15:00 +34°C° 0 mm 5 m/S 737 mmHg 31%
    16:00 +34°C° 0 mm 5 m/S 737 mmHg 32%
    17:00 +32°C° 0 mm 4 m/S 737 mmHg 39%
    18:00 +29°C° 0 mm 4 m/S 737 mmHg 45%
    19:00 +27°C° 0 mm 3 m/S 737 mmHg 51%
    20:00 +26°C° 0 mm 4 m/S 737 mmHg 53%
    21:00 +26°C° 0 mm 4 m/S 738 mmHg 55%
    22:00 +25°C° 0 mm 5 m/S 738 mmHg 58%
    23:00 +23°C° 0 mm 4 m/S 738 mmHg 60%

    24 Juli, Mittwoch

    Zeit Temperatur Niederschläge Wind Luftdruck Luftfeuchtigkeit
    00:00 +22°C° 0 mm 4 m/S 738 mmHg 63%
    01:00 +21°C° 0 mm 4 m/S 738 mmHg 66%
    02:00 +21°C° 0 mm 4 m/S 737 mmHg 67%
    03:00 +21°C° 0 mm 4 m/S 737 mmHg 68%
    04:00 +20°C° 0 mm 4 m/S 737 mmHg 69%
    05:00 +22°C° 0 mm 4 m/S 737 mmHg 64%
    06:00 +23°C° 0 mm 5 m/S 737 mmHg 58%
    07:00 +26°C° 0 mm 5 m/S 737 mmHg 53%
    08:00 +27°C° 0 mm 5 m/S 738 mmHg 48%
    09:00 +29°C° 0 mm 5 m/S 738 mmHg 43%
    10:00 +30°C° 0 mm 5 m/S 738 mmHg 38%
    11:00 +32°C° 0 mm 5 m/S 738 mmHg 36%
    12:00 +33°C° 0 mm 4 m/S 738 mmHg 34%
    13:00 +34°C° 0 mm 4 m/S 737 mmHg 32%
    14:00 +34°C° 0 mm 4 m/S 737 mmHg 33%
    15:00 +34°C° 0 mm 4 m/S 737 mmHg 33%
    16:00 +34°C° 0 mm 4 m/S 737 mmHg 33%
    17:00 +32°C° 0 mm 4 m/S 737 mmHg 38%
    18:00 +29°C° 0 mm 4 m/S 737 mmHg 43%
    19:00 +27°C° 0 mm 4 m/S 737 mmHg 48%
    20:00 +26°C° 0 mm 4 m/S 738 mmHg 50%
    21:00 +25°C° 0 mm 4 m/S 738 mmHg 51%
    22:00 +23°C° 0 mm 4 m/S 738 mmHg 53%
    23:00 +23°C° 0 mm 4 m/S 738 mmHg 57%

    25 Juli, Donnerstag

    Zeit Temperatur Niederschläge Wind Luftdruck Luftfeuchtigkeit
    00:00 +22°C° 0 mm 4 m/S 738 mmHg 60%
    01:00 +21°C° 0 mm 4 m/S 738 mmHg 64%
    02:00 +21°C° 0 mm 4 m/S 738 mmHg 66%
    03:00 +20°C° 0 mm 4 m/S 738 mmHg 67%
    04:00 +20°C° 0 mm 4 m/S 738 mmHg 69%
    05:00 +22°C° 0 mm 4 m/S 738 mmHg 65%
    06:00 +24°C° 0 mm 3 m/S 738 mmHg 61%
    07:00 +26°C° 0 mm 3 m/S 739 mmHg 57%
    08:00 +28°C° 0 mm 3 m/S 739 mmHg 51%
    09:00 +30°C° 0 mm 3 m/S 739 mmHg 45%
    10:00 +31°C° 0 mm 3 m/S 739 mmHg 39%
    11:00 +33°C° 0 mm 3 m/S 738 mmHg 36%
    12:00 +34°C° 0 mm 3 m/S 738 mmHg 33%
    13:00 +35°C° 0 mm 3 m/S 738 mmHg 31%
    14:00 +35°C° 0 mm 3 m/S 738 mmHg 32%
    15:00 +34°C° 0 mm 3 m/S 738 mmHg 34%
    16:00 +34°C° 0 mm 2 m/S 737 mmHg 35%
    17:00 +31°C° 0 mm 2 m/S 737 mmHg 43%
    18:00 +28°C° 0 mm 1 m/S 737 mmHg 51%
    19:00 +26°C° 0 mm 1 m/S 737 mmHg 58%
    20:00 +25°C° 0 mm 1 m/S 738 mmHg 59%
    21:00 +25°C° 0 mm 1 m/S 738 mmHg 60%
    22:00 +24°C° 0 mm 2 m/S 738 mmHg 61%
    23:00 +24°C° 0 mm 2 m/S 738 mmHg 62%

    26 Juli, Freitag

    Zeit Temperatur Niederschläge Wind Luftdruck Luftfeuchtigkeit
    00:00 +23°C° 0 mm 2 m/S 738 mmHg 63%
    01:00 +23°C° 0 mm 2 m/S 738 mmHg 64%
    02:00 +23°C° 0 mm 2 m/S 738 mmHg 64%
    03:00 +21°C° 0 mm 2 m/S 737 mmHg 64%
    04:00 +21°C° 0 mm 2 m/S 737 mmHg 65%
    05:00 +24°C° 0 mm 2 m/S 737 mmHg 60%
    06:00 +26°C° 0 mm 2 m/S 737 mmHg 55%
    07:00 +27°C° 0 mm 1 m/S 737 mmHg 51%
    08:00 +30°C° 0 mm 1 m/S 737 mmHg 45%
    09:00 +32°C° 0 mm 1 m/S 737 mmHg 40%
    10:00 +35°C° 0 mm 1 m/S 737 mmHg 34%
    11:00 +36°C° 0 mm 2 m/S 737 mmHg 34%
    12:00 +36°C° 0 mm 3 m/S 737 mmHg 34%
    13:00 +36°C° 0 mm 3 m/S 736 mmHg 33%
    14:00 +35°C° 0 mm 3 m/S 736 mmHg 36%
    15:00 +34°C° 0 mm 3 m/S 736 mmHg 38%
    16:00 +33°C° 0 mm 3 m/S 735 mmHg 41%
    17:00 +30°C° 0 mm 2 m/S 735 mmHg 47%
    18:00 +28°C° 0 mm 1 m/S 735 mmHg 54%
    19:00 +26°C° 0 mm 1 m/S 735 mmHg 61%
    20:00 +25°C° 0 mm 1 m/S 736 mmHg 62%
    21:00 +25°C° 0 mm 1 m/S 736 mmHg 63%
    22:00 +24°C° 0 mm 1 m/S 736 mmHg 64%
    23:00 +24°C° 0 mm 1 m/S 736 mmHg 65%
    Mehr zeigen